Date String (YYYY-MM-DD hh:mm:ss) UTC,Instrument flags,absolute air pressure of the measurement (hPa),sample flow rate (lpm),inlet stack bypass flow (lpm),air temperature of the measurement (°C),ambient temperature measured by the external sensor (°C),aerosol sample conditioner tube jacket temperature (°C),OPC LED temperature (°C),internal box temperature (°C),relative humidity of the measurement (%),span deviation,mass concentration of particles derived from Lorenz-Mie calculation of OPC scattering (μg/m³),mass concentration of particles derived from Lorenz-Mie calculation of OPC scattering (μg/m³),mass concentration of particles derived from Lorenz-Mie calculation of OPC scattering (μg/m³)
DateTimeUTC,F1_M11,P_M11,Q1_M11,Q2_M11,T1_M11,T2_M11,T3_M11,T4_M11,T5_M11,U1_M11,ZSPAN_M11,X0_M11,X2_M11,X1_M11
2024-02-20 19:00:00,SystemResetWarning,0828.6,5.00,000.00,025.1,024.8,000.0,033.2,027.0,09.9,0000.0,0001.83,0000.83,0000.62
2024-02-20 19:01:00,SystemResetWarning,0828.5,5.00,000.00,025.2,024.8,000.0,033.2,027.1,09.9,0000.0,0001.86,0000.84,0000.61
2024-02-20 19:02:00,SystemResetWarning,0828.5,4.99,000.00,025.2,024.8,000.0,033.2,027.1,09.9,0000.0,0001.71,0000.84,0000.61
2024-02-20 19:03:00,SystemResetWarning,0828.4,4.99,000.00,025.2,024.9,000.0,033.3,027.1,10.0,0000.0,0001.82,0000.84,0000.60
2024-02-20 19:04:00,SystemResetWarning,0828.4,4.99,000.00,025.3,024.9,000.0,033.3,027.1,10.1,0000.0,0001.85,0000.83,0000.59
2024-02-20 19:05:00,SystemResetWarning,0828.4,5.00,000.00,025.3,024.9,000.0,033.3,027.1,10.3,0000.0,0001.93,0000.84,0000.60
2024-02-20 19:06:00,SystemResetWarning,0828.4,5.01,000.00,025.3,024.9,000.0,033.3,027.1,10.2,0000.0,0002.15,0000.87,0000.60
2024-02-20 19:07:00,SystemResetWarning,0828.4,5.01,000.00,025.3,024.8,000.0,033.4,027.1,10.3,0000.0,0002.62,0000.87,0000.60
2024-02-20 19:08:00,SystemResetWarning,0828.4,5.00,000.00,025.3,024.8,000.0,033.4,027.1,10.4,0000.0,0002.66,0000.89,0000.61
2024-02-20 19:09:00,SystemResetWarning,0828.4,5.00,000.00,025.3,024.8,000.0,033.4,027.1,10.6,0000.0,0002.77,0000.91,0000.61
2024-02-20 19:10:00,SystemResetWarning,0828.3,4.99,000.00,025.3,024.8,000.0,033.4,027.0,10.7,0000.0,0003.40,0000.91,0000.60
2024-02-20 19:11:00,SystemResetWarning,0828.3,4.99,000.00,025.3,024.8,000.0,033.4,027.0,10.6,0000.0,0003.14,0000.87,0000.60
2024-02-20 19:12:00,SystemResetWarning,0828.4,5.01,000.00,025.3,024.7,000.0,033.5,027.0,10.6,0000.0,0002.92,0000.86,0000.60
2024-02-20 19:13:00,SystemResetWarning,0828.4,5.01,000.00,025.2,024.7,000.0,033.5,026.9,10.7,0000.0,0002.85,0000.86,0000.62
2024-02-20 19:14:00,SystemResetWarning,0828.3,4.99,000.00,025.2,024.6,000.0,033.5,026.9,10.6,0000.0,0002.67,0000.86,0000.63
2024-02-20 19:15:00,SystemResetWarning,0828.4,4.99,000.00,025.2,024.7,000.0,033.5,027.0,11.0,0000.0,0002.63,0000.86,0000.63
2024-02-20 19:16:00,SystemResetWarning,0828.3,5.01,000.00,025.2,024.7,000.0,033.5,027.0,10.9,0000.0,0002.55,0000.85,0000.63
2024-02-20 19:17:00,SystemResetWarning,0828.4,5.00,000.00,025.2,024.7,000.0,033.5,027.0,10.5,0000.0,0002.52,0000.86,0000.63
2024-02-20 19:18:00,SystemResetWarning,0828.3,5.00,000.00,025.2,024.6,000.0,033.5,026.9,10.6,0000.0,0001.96,0000.86,0000.64
2024-02-20 19:19:00,SystemResetWarning,0828.3,5.00,000.00,025.1,024.5,000.0,033.5,026.7,10.6,0000.0,0002.06,0000.85,0000.64
2024-02-20 19:20:00,SystemResetWarning,0828.3,5.00,000.00,025.0,024.4,000.0,033.5,026.6,10.7,0000.0,0001.98,0000.85,0000.64
2024-02-20 19:21:00,SystemResetWarning,0828.2,5.00,000.00,025.0,024.2,000.0,033.4,026.5,10.4,0000.0,0001.36,0000.83,0000.65
2024-02-20 19:22:00,SystemResetWarning,0828.2,4.99,000.00,025.0,024.2,000.0,033.4,026.5,10.6,0000.0,0001.38,0000.85,0000.66
2024-02-20 19:23:00,SystemResetWarning,0828.1,5.00,000.00,025.0,024.2,000.0,033.4,026.6,11.0,0000.0,0001.35,0000.84,0000.65
2024-02-20 19:24:00,SystemResetWarning,0828.2,5.00,000.00,024.9,024.2,000.0,033.4,026.6,10.8,0000.0,0001.34,0000.83,0000.64
2024-02-20 19:25:00,SystemResetWarning,0828.2,5.02,000.00,025.0,024.3,000.0,033.4,026.6,10.8,0000.0,0001.36,0000.82,0000.63
2024-02-20 19:26:00,SystemResetWarning,0828.3,5.01,000.00,025.0,024.3,000.0,033.4,026.7,10.7,0000.0,0001.41,0000.84,0000.63
2024-02-20 19:27:00,SystemResetWarning,0828.3,5.00,000.00,025.0,024.4,000.0,033.4,026.7,10.5,0000.0,0001.40,0000.83,0000.63
2024-02-20 19:28:00,SystemResetWarning,0828.2,5.00,000.00,025.0,024.4,000.0,033.4,026.7,10.8,0000.0,0001.36,0000.81,0000.63
2024-02-20 19:29:00,SystemResetWarning,0828.2,5.00,000.00,025.0,024.5,000.0,033.4,026.7,10.6,0000.0,0001.46,0000.83,0000.64
2024-02-20 19:30:00,SystemResetWarning,0828.2,5.00,000.00,025.0,024.5,000.0,033.4,026.7,11.0,0000.0,0001.39,0000.84,0000.65
2024-02-20 19:31:00,SystemResetWarning,0828.1,5.00,000.00,025.0,024.5,000.0,033.4,026.7,10.8,0000.0,0001.39,0000.86,0000.65
2024-02-20 19:32:00,SystemResetWarning,0828.2,5.01,000.00,025.0,024.4,000.0,033.4,026.7,10.6,0000.0,0001.37,0000.85,0000.65
2024-02-20 19:33:00,SystemResetWarning,0828.2,5.01,000.00,025.0,024.4,000.0,033.4,026.7,10.6,0000.0,0001.30,0000.82,0000.65
2024-02-20 19:34:00,SystemResetWarning,0828.2,5.00,000.00,025.0,024.4,000.0,033.4,026.7,10.6,0000.0,0001.37,0000.85,0000.65
2024-02-20 19:35:00,SystemResetWarning,0828.2,5.00,000.00,025.0,024.4,000.0,033.4,026.7,10.6,0000.0,0001.45,0000.89,0000.67
2024-02-20 19:36:00,SystemResetWarning,0828.2,4.99,000.00,025.0,024.3,000.0,033.4,026.6,10.6,0000.0,0001.45,0000.90,0000.68
2024-02-20 19:37:00,SystemResetWarning,0828.2,4.99,000.00,024.9,024.2,000.0,033.4,026.6,10.6,0000.0,0001.71,0000.92,0000.68
2024-02-20 19:38:00,SystemResetWarning,0828.1,5.02,000.00,024.9,024.2,000.0,033.3,026.6,10.6,0000.0,0001.76,0000.94,0000.69
2024-02-20 19:39:00,SystemResetWarning,0828.1,5.00,000.00,024.9,024.2,000.0,033.3,026.6,10.6,0000.0,0001.82,0000.97,0000.70
2024-02-20 19:40:00,SystemResetWarning,0828.1,4.99,000.00,024.9,024.2,000.0,033.3,026.6,10.8,0000.0,0001.76,0000.96,0000.70
2024-02-20 19:41:00,SystemResetWarning,0828.1,4.99,000.00,024.9,024.2,000.0,033.3,026.6,11.4,0000.0,0001.80,0000.96,0000.71
2024-02-20 19:42:00,SystemResetWarning,0828.0,5.01,000.00,024.9,024.3,000.0,033.3,026.6,10.9,0000.0,0001.88,0000.99,0000.71
2024-02-20 19:43:00,SystemResetWarning,0828.1,5.01,000.00,024.9,024.4,000.0,033.3,026.7,11.2,0000.0,0001.89,0001.00,0000.72
2024-02-20 19:44:00,SystemResetWarning,0828.1,5.00,000.00,025.0,024.4,000.0,033.3,026.7,11.0,0000.0,0002.60,0001.01,0000.72
2024-02-20 19:45:00,SystemResetWarning,0828.1,4.98,000.00,025.0,024.5,000.0,033.3,026.8,11.2,0000.0,0002.70,0001.00,0000.74
2024-02-20 19:46:00,SystemResetWarning,0828.1,5.01,000.00,025.0,024.5,000.0,033.3,026.8,11.0,0000.0,0002.96,0000.99,0000.74
2024-02-20 19:47:00,SystemResetWarning,0827.9,5.01,000.00,025.0,024.6,000.0,033.3,026.8,11.1,0000.0,0003.32,0001.01,0000.74
2024-02-20 19:48:00,SystemResetWarning,0828.0,4.99,000.00,025.1,024.7,000.0,033.4,026.9,10.9,0000.0,0003.01,0000.98,0000.75
2024-02-20 19:49:00,SystemResetWarning,0827.9,4.99,000.00,025.1,024.7,000.0,033.4,026.9,11.2,0000.0,0002.89,0000.95,0000.75
2024-02-20 19:50:00,SystemResetWarning,0827.8,5.01,000.00,025.1,024.8,000.0,033.4,027.0,11.4,0000.0,0002.84,0000.93,0000.75
2024-02-20 19:51:00,SystemResetWarning,0827.9,5.01,000.00,025.1,024.7,000.0,033.4,026.9,11.1,0000.0,0002.90,0000.95,0000.74
2024-02-20 19:52:00,SystemResetWarning,0827.8,5.00,000.00,025.2,024.8,000.0,033.4,027.0,11.3,0000.0,0002.92,0000.94,0000.74
2024-02-20 19:53:00,SystemResetWarning,0827.8,4.99,000.00,025.2,024.8,000.0,033.4,027.0,11.4,0000.0,0002.84,0000.91,0000.74
2024-02-20 19:54:00,SystemResetWarning,0827.8,4.99,000.00,025.2,024.8,000.0,033.5,027.1,11.5,0000.0,0002.91,0000.92,0000.74
2024-02-20 19:55:00,SystemResetWarning,0827.9,5.00,000.00,025.3,024.9,000.0,033.5,027.2,11.2,0000.0,0002.29,0000.92,0000.75
2024-02-20 19:56:00,SystemResetWarning,0827.8,5.00,000.00,025.3,024.9,000.0,033.5,027.2,11.2,0000.0,0002.27,0000.95,0000.75
2024-02-20 19:57:00,SystemResetWarning,0827.8,5.00,000.00,025.3,025.0,000.0,033.6,027.3,10.8,0000.0,0002.04,0000.96,0000.75
2024-02-20 19:58:00,SystemResetWarning,0827.8,5.00,000.00,025.4,025.0,000.0,033.6,027.3,10.8,0000.0,0001.76,0000.96,0000.74
2024-02-20 19:59:00,SystemResetWarning,0827.7,5.00,000.00,025.4,025.0,000.0,033.6,027.4,10.8,0000.0,0001.84,0001.01,0000.74
